{"data":{"norad_id":16908,"intl_designator":"1986-061A","name":"AJISAI (EGS)","alt_names":[],"object_type":"PAYLOAD","status":"ACTIVE","operator":null,"country":"JPN","launch_date":"1986-08-12","launch_site_code":"TANSC","launch_vehicle":null,"mission":null,"orbit_class":"UNKNOWN","rcs_meters":4.228,"size_class":null,"mass_kg":null,"dimensions":null,"purposes":["science"],"wikipedia_slug":null,"has_3d_model":false,"image_url":null,"decayed_at":null,"tle_current":{"epoch":"2026-09-20T04:39:52.081056Z","epoch_age_seconds":37873,"freshness":"FRESH","line1":"1 16908U 86061A   26263.19435279 -.00000088  00000+0  68458-4 0  9995","line2":"2 16908  50.0079 215.2503 0011359  62.0631 257.8383 12.44517426492212","mean_motion":12.44517426,"eccentricity":0.0011359,"inclination_deg":50.0079,"raan_deg":215.2503,"arg_perigee_deg":62.0631,"mean_anomaly_deg":257.8383,"bstar":6.8458e-5,"rev_number":49221,"period_min":115.70749994464,"perigee_km":1478.5766417768,"apogee_km":1496.4458214293,"semimajor_km":7865.6482316031,"source":"CELESTRAK","updated_at":"2026-09-20T09:00:47.280676Z"}}}